Regional Weather Roundup
Issued by NWS

Home | Current Version | Previous Version | Graphics & Text | Print | Product List | Glossary On
Versions: 1 2 3 4 5 6 7 8 9 10 11 12 13 14 15 16 17 18 19 20 21 22 23 24 25 26 27 28 29 30 31 32 33 34 35 36 37 38 39 40 41 42 43 44 45 46 47 48 49 50
800
ASUS43 KTOP 250708
RWRKS

WEATHER ROUNDUP FOR KANSAS
NATIONAL WEATHER SERVICE GOODLAND KS
200 AM CDT TUE APR 25 2017

NOTE:  "FAIR" INDICATES FEW OR NO CLOUDS BELOW 12,000 FEET WITH NO
SIGNIFICANT WEATHER AND/OR OBSTRUCTIONS TO VISIBILITY.

KSZ001>006-013>018-027>032-041>047-250800-
NORTHWEST KANSAS

CITY           SKY/WX    TMP DP  RH WIND       PRES   REMARKS
GOODLAND       CLOUDY    53  43  68 NE14      29.48F
HAYS           MOCLDY    61  52  72 SE8       29.43F
HILL CITY      CLOUDY    59  46  62 E13       29.46F
RUSSELL        CLOUDY    61  52  72 SE12G21   29.43F
$$

KSZ061>065-074>080-084>089-250800-
SOUTHWEST KANSAS

CITY           SKY/WX    TMP DP  RH WIND       PRES   REMARKS
DODGE CITY     CLEAR     57  50  77 S13       29.39F
ELKHART          N/A     53  42  66 SW6         N/A
GARDEN CITY    CLEAR     53  47  79 E8        29.39F
GREAT BEND     CLOUDY    63  50  62 SE15      29.43F
PRATT          PTCLDY    58  46  66 SE16G25   29.41F
$$

KSZ066>073-081>083-090>101-250800-
SOUTHEAST KANSAS

CITY           SKY/WX    TMP DP  RH WIND       PRES   REMARKS
CHANUTE        PTCLDY    60  47  61 S10       29.59S
COFFEYVILLE    PTCLDY    58  48  69 SE9       29.59F
HUTCHINSON     CLOUDY    61  49  64 SE15G22   29.46F
MEDICINE LODGE   N/A     60  48  64 SE14G22   29.41F
NEWTON         CLOUDY    60  49  66 S14       29.51F
PARSONS        PTCLDY    62  47  57 VRB6      29.60F
WICHITA INTL   MOCLDY    62  49  62 SE16G24   29.49F
WICHITA JABRA  PTCLDY    61  49  64 S14G21    29.50F
WICHITA MCCONL LGT RAIN  61  50  67 S16       29.48F
WINFIELD       PTCLDY    62  49  62 SE13      29.52F
$$

KSZ007>012-019>026-033>040-048>060-102>105-250800-
NORTHEAST KANSAS

CITY           SKY/WX    TMP DP  RH WIND       PRES   REMARKS
CONCORDIA      CLOUDY    58  53  84 E3        29.49F
EMPORIA        CLOUDY    60  49  66 S18       29.53F
LAWRENCE       CLOUDY    62  47  57 SE10      29.55F
MANHATTAN      CLOUDY    64  48  56 S12       29.50F
MARYSVILLE     CLOUDY    55  48  76 CALM      29.51F
OLATHE IND     CLOUDY    60  45  57 S12       29.58F
OLATHE EXE     PTCLDY    61  46  57 S10       29.58F
SALINA         CLOUDY    63  50  62 SE12      29.47F
TOPEKA BILLARD CLOUDY    63  48  58 S9        29.54S
TOPEKA FORBES  CLOUDY    62  48  60 S10       29.54F
$$




USA.gov is the U.S. government's official web portal to all federal, state and local government web resources and services.